TimeCST,TemperatureF,Dew PointF,Humidity,Sea Level PressureIn,VisibilityMPH,Wind Direction,Wind SpeedMPH,Gust SpeedMPH,PrecipitationIn,Events,Conditions,WindDirDegrees,DateUTC
12:00 AM,18,14,77,30.52,15,North,5.8,,,,Mostly Cloudy,350,2012-10-06 06:00:00
12:00 AM,17.6,14.0,86,30.52,15.0,North,5.8,-,N/A,,Mostly Cloudy,350,2012-10-06 06:00:00
1:00 AM,17.6,14.0,86,30.52,15.0,North,6.9,-,N/A,,Mostly Cloudy,350,2012-10-06 07:00:00
2:00 AM,15.8,12.2,86,30.51,15.0,NNW,3.5,-,N/A,,Mostly Cloudy,340,2012-10-06 08:00:00
3:00 AM,14.0,12.2,93,30.51,15.0,NNW,8.1,-,N/A,,Scattered Clouds,340,2012-10-06 09:00:00
4:00 AM,12.2,10.4,92,30.49,15.0,NNW,4.6,-,N/A,,Partly Cloudy,340,2012-10-06 10:00:00
5:00 AM,12.2,10.4,92,30.49,15.0,North,2.3,-,N/A,,Partly Cloudy,350,2012-10-06 11:00:00
6:00 AM,11,10,96,30.50,3,North,2.3,,,,Mist,350,2012-10-06 12:00:00
6:00 AM,12.2,10.4,92,30.50,3.0,North,2.3,-,N/A,,Partly Cloudy,350,2012-10-06 12:00:00
6:26 AM,-9999,-9999,N/A,-9999,2.0,NW,3.5,-,N/A,,Clear,320,2012-10-06 12:26:00
6:52 AM,-9999,-9999,N/A,-9999,5.0,NNW,5.8,-,N/A,,Partly Cloudy,340,2012-10-06 12:52:00
7:00 AM,10.4,8.6,92,30.49,7.0,NNW,5.8,-,N/A,,Partly Cloudy,340,2012-10-06 13:00:00
8:00 AM,17.6,15.8,93,30.48,15.0,NNW,5.8,-,N/A,,Partly Cloudy,340,2012-10-06 14:00:00
9:00 AM,24.8,19.4,80,30.46,15.0,WSW,5.8,-,N/A,,Partly Cloudy,250,2012-10-06 15:00:00
10:00 AM,33.8,21.2,60,30.44,15.0,WSW,6.9,-,N/A,,Partly Cloudy,250,2012-10-06 16:00:00
11:00 AM,41.0,23.0,49,30.42,15.0,WSW,8.1,-,N/A,,Partly Cloudy,240,2012-10-06 17:00:00
12:00 PM,45,23,29,30.38,15,West,8.1,,,,Scattered Clouds,260,2012-10-06 18:00:00
12:00 PM,44.6,23.0,43,30.38,15.0,WSW,8.1,-,N/A,,Partly Cloudy,250,2012-10-06 18:00:00
1:00 PM,46.4,21.2,37,30.34,15.0,West,17.3,-,N/A,,Partly Cloudy,280,2012-10-06 19:00:00
2:00 PM,48.2,21.2,34,30.30,15.0,WSW,17.3,23.0,N/A,,Partly Cloudy,250,2012-10-06 20:00:00
3:00 PM,50.0,23.0,35,30.26,15.0,West,17.3,23.0,N/A,,Mostly Cloudy,260,2012-10-06 21:00:00
4:00 PM,50.0,21.2,32,30.23,15.0,West,15.0,-,N/A,,Mostly Cloudy,270,2012-10-06 22:00:00
5:00 PM,50.0,21.2,32,30.20,15.0,WSW,18.4,-,N/A,,Mostly Cloudy,250,2012-10-06 23:00:00
6:00 PM,46,21,24,30.20,15,WSW,13.8,,,,Scattered Clouds,250,2012-10-07 00:00:00
6:00 PM,46.4,21.2,37,30.20,15.0,WSW,12.7,-,N/A,,Mostly Cloudy,250,2012-10-07 00:00:00
7:00 PM,39.2,21.2,49,30.18,15.0,SW,9.2,-,N/A,,Mostly Cloudy,230,2012-10-07 01:00:00
8:00 PM,33.8,19.4,56,30.16,15.0,SW,9.2,-,N/A,,Mostly Cloudy,230,2012-10-07 02:00:00
9:00 PM,35.6,23.0,60,30.14,15.0,SW,9.2,-,N/A,,Mostly Cloudy,230,2012-10-07 03:00:00
10:00 PM,33.8,21.2,60,30.12,15.0,SW,10.4,-,N/A,,Mostly Cloudy,230,2012-10-07 04:00:00
11:00 PM,33.8,23.0,65,30.10,15.0,SW,11.5,-,N/A,,Mostly Cloudy,220,2012-10-07 05:00:00